Location: Bruderhein
(53.8035°N, 112.9265°W)
Time: 01:56:59
(UTC+00:00)

BEESAT - Pass Details

Date: 08 April 2023
Orbit: 696 x 706 km, 98.5° (Epoch: 31 May)

Event Time Altitude Azimuth Distance (km) Brightness Sun altitude
Rises 03:38:55 0° 25° (NNE) 3,111 ? -11.8°
Reaches altitude 10° 03:41:43 10° 42° (NE) 2,185 ? -12.2°
Maximum altitude 03:45:18 21° 90° (E) 1,574 ? -12.6°
Enters shadow 03:46:39 19° 113° (ESE) 1,671 ? -12.8°
